Location: Casa Rossa
(45.2389°N, 12.2056°E)
Time: 03:28:01
(UTC+00:00)

Cosmos 2278 - Pass Details

Date: 14 July 2020
Orbit: 838 x 854 km, 71.1° (Epoch: 11 August)

Event Time Altitude Azimuth Distance (km) Brightness Sun altitude
Rises 02:00:40 0° 331° (NNW) 3,433 7.2 -13.5°
Reaches altitude 10° 02:03:09 10° 329° (NNW) 2,493 6.4 -13.2°
Maximum altitude 02:08:48 65° 249° (WSW) 939 3.7 -12.6°
Drops below altitude 10° 02:14:26 10° 169° (SSE) 2,475 5.8 -11.9°
Sets 02:16:53 0° 166° (SSE) 3,405 6.5 -11.6°
